TAIP08 YMES-YCBG

Flight info

Callsign TAIP08
Flight time 2h 21m
Altitude 7500
Route YFLI
Aircraft EC35/L-VGD/C

Departure

Time 2026-04-22 12:27
Airport RAAF Base East Sale (YMES)

Arrival

Time 2026-04-22 14:49
Airport Cambridge Aerodrome (YCBG)
Time Latitude Longitude Altitude Speed Heading
2026-04-22 12:23 -38.09970 147.13533 24 ft 0 kts 186°
2026-04-22 12:26 -38.09978 147.13535 39 ft 2 kts
2026-04-22 12:26 -38.09845 147.13616 145 ft 47 kts
2026-04-22 12:27 -38.09605 147.13806 199 ft 38 kts 86°
2026-04-22 12:27 -38.09734 147.14157 178 ft 56 kts 95°
2026-04-22 12:27 -38.09884 147.14671 336 ft 72 kts 126°
2026-04-22 12:27 -38.10311 147.14955 852 ft 76 kts 175°
2026-04-22 12:28 -38.10886 147.15146 1240 ft 96 kts 161°
2026-04-22 12:28 -38.11611 147.15448 1459 ft 121 kts 157°
2026-04-22 12:28 -38.12377 147.15785 1632 ft 112 kts 156°
2026-04-22 12:28 -38.13118 147.16117 1725 ft 116 kts 157°
2026-04-22 12:29 -38.13886 147.16454 1827 ft 118 kts 158°
2026-04-22 12:29 -38.14669 147.16793 1930 ft 120 kts 158°
2026-04-22 12:29 -38.15462 147.17130 2030 ft 120 kts 158°
2026-04-22 12:29 -38.16258 147.17465 2138 ft 121 kts 157°
2026-04-22 12:30 -38.17873 147.18145 2343 ft 122 kts 158°
2026-04-22 12:30 -38.18677 147.18479 2438 ft 121 kts 159°
2026-04-22 12:30 -38.19487 147.18816 2537 ft 123 kts 159°
2026-04-22 12:31 -38.20289 147.19149 2637 ft 123 kts 159°
2026-04-22 12:31 -38.21100 147.19485 2735 ft 123 kts 160°
2026-04-22 12:31 -38.21913 147.19822 2842 ft 123 kts 160°
2026-04-22 12:31 -38.22725 147.20160 2940 ft 123 kts 160°
2026-04-22 12:32 -38.23536 147.20496 3038 ft 122 kts 160°
2026-04-22 12:32 -38.25152 147.21159 3235 ft 122 kts 160°
2026-04-22 12:32 -38.25960 147.21491 3337 ft 122 kts 160°
2026-04-22 12:33 -38.26773 147.21826 3438 ft 123 kts 160°
2026-04-22 12:33 -38.27586 147.22162 3541 ft 122 kts 160°
2026-04-22 12:33 -38.28401 147.22498 3636 ft 124 kts 161°
2026-04-22 12:33 -38.29215 147.22836 3733 ft 123 kts 161°
2026-04-22 12:34 -38.30017 147.23166 3833 ft 122 kts 161°
2026-04-22 12:34 -38.30826 147.23501 3931 ft 123 kts 161°
2026-04-22 12:34 -38.31640 147.23839 4031 ft 123 kts 161°
2026-04-22 12:34 -38.32451 147.24174 4129 ft 122 kts 162°
2026-04-22 12:35 -38.33261 147.24509 4232 ft 122 kts 162°
2026-04-22 12:35 -38.34074 147.24845 4333 ft 123 kts 162°
2026-04-22 12:35 -38.34890 147.25182 4432 ft 123 kts 162°
2026-04-22 12:35 -38.35702 147.25518 4533 ft 123 kts 162°
2026-04-22 12:36 -38.36518 147.25855 4635 ft 123 kts 162°
2026-04-22 12:36 -38.37322 147.26188 4732 ft 123 kts 162°
2026-04-22 12:36 -38.38131 147.26523 4833 ft 122 kts 162°
2026-04-22 12:36 -38.38938 147.26858 4937 ft 122 kts 162°
2026-04-22 12:37 -38.39746 147.27193 5037 ft 122 kts 162°
2026-04-22 12:37 -38.40552 147.27527 5140 ft 122 kts 163°
2026-04-22 12:37 -38.41357 147.27861 5239 ft 122 kts 163°
2026-04-22 12:37 -38.42160 147.28195 5339 ft 121 kts 163°
2026-04-22 12:38 -38.42965 147.28528 5433 ft 121 kts 163°
2026-04-22 12:38 -38.43767 147.28860 5534 ft 121 kts 163°
2026-04-22 12:38 -38.44566 147.29192 5634 ft 121 kts 164°
2026-04-22 12:38 -38.45363 147.29522 5734 ft 120 kts 164°
2026-04-22 12:39 -38.46152 147.29849 5833 ft 121 kts 163°
2026-04-22 12:39 -38.47745 147.30510 6034 ft 120 kts 163°
2026-04-22 12:39 -38.48545 147.30841 6130 ft 121 kts 163°
2026-04-22 12:40 -38.49348 147.31176 6237 ft 121 kts 164°
2026-04-22 12:40 -38.50141 147.31507 6341 ft 119 kts 163°
2026-04-22 12:40 -38.50931 147.31836 6442 ft 120 kts 164°
2026-04-22 12:40 -38.51721 147.32164 6547 ft 118 kts 165°
2026-04-22 12:41 -38.52506 147.32491 6649 ft 119 kts 164°
2026-04-22 12:41 -38.53294 147.32819 6754 ft 118 kts 165°
2026-04-22 12:41 -38.54068 147.33142 6853 ft 119 kts 164°
2026-04-22 12:41 -38.54860 147.33472 6949 ft 119 kts 164°
2026-04-22 12:42 -38.55648 147.33800 7045 ft 120 kts 164°
2026-04-22 12:42 -38.56444 147.34131 7138 ft 121 kts 163°
2026-04-22 12:42 -38.57250 147.34465 7236 ft 122 kts 163°
2026-04-22 12:42 -38.58047 147.34796 7388 ft 120 kts 164°
2026-04-22 12:43 -38.58847 147.35129 7462 ft 123 kts 163°
2026-04-22 12:43 -38.59669 147.35471 7474 ft 131 kts 165°
2026-04-22 12:43 -38.60179 147.35652 7117 ft 23 kts 349°
2026-04-22 12:43 -38.60126 147.35691 6255 ft 17 kts 353°
2026-04-22 12:44 -38.60150 147.35462 5215 ft 48 kts 201°
2026-04-22 12:44 -38.60376 147.35525 4909 ft 35 kts 161°
2026-04-22 12:44 -38.60684 147.35711 4754 ft 68 kts 140°
2026-04-22 12:44 -38.61251 147.35999 4867 ft 108 kts 152°
2026-04-22 12:45 -38.62076 147.36366 4996 ft 137 kts 156°
2026-04-22 12:45 -38.62944 147.36745 5175 ft 126 kts 156°
2026-04-22 12:45 -38.63772 147.37117 5142 ft 128 kts 157°
2026-04-22 12:45 -38.64626 147.37501 5071 ft 132 kts 159°
2026-04-22 12:46 -38.65497 147.37882 5048 ft 132 kts 161°
2026-04-22 12:46 -38.66369 147.38259 5034 ft 133 kts 162°
2026-04-22 12:46 -38.67249 147.38634 5030 ft 133 kts 161°
2026-04-22 12:46 -38.68127 147.39008 5024 ft 133 kts 162°
2026-04-22 12:47 -38.69010 147.39382 5024 ft 133 kts 162°
2026-04-22 12:47 -38.69889 147.39753 5022 ft 133 kts 162°
2026-04-22 12:47 -38.70772 147.40124 5022 ft 134 kts 162°
2026-04-22 12:47 -38.71656 147.40496 5023 ft 133 kts 162°
2026-04-22 12:48 -38.72535 147.40865 5021 ft 133 kts 162°
2026-04-22 12:48 -38.73417 147.41235 5026 ft 133 kts 162°
2026-04-22 12:48 -38.74284 147.41599 5024 ft 132 kts 162°
2026-04-22 12:48 -38.75163 147.41967 5025 ft 133 kts 162°
2026-04-22 12:49 -38.76067 147.42341 5028 ft 137 kts 162°
2026-04-22 12:49 -38.76971 147.42719 5021 ft 137 kts 162°
2026-04-22 12:49 -38.77877 147.43099 5023 ft 137 kts 162°
2026-04-22 12:49 -38.78789 147.43480 5024 ft 138 kts 162°
2026-04-22 12:50 -38.79701 147.43863 5021 ft 138 kts 162°
2026-04-22 12:50 -38.80614 147.44247 5020 ft 138 kts 162°
2026-04-22 12:50 -38.81526 147.44630 5023 ft 137 kts 162°
2026-04-22 12:50 -38.82437 147.45011 5022 ft 138 kts 162°
2026-04-22 12:51 -38.83349 147.45394 5022 ft 138 kts 162°
2026-04-22 12:51 -38.84261 147.45777 5020 ft 139 kts 162°
2026-04-22 12:51 -38.85176 147.46161 5023 ft 139 kts 162°
2026-04-22 12:51 -38.86093 147.46547 5022 ft 138 kts 162°
2026-04-22 12:52 -38.87006 147.46931 5023 ft 138 kts 162°
2026-04-22 12:52 -38.87918 147.47315 5021 ft 138 kts 162°
2026-04-22 12:52 -38.88816 147.47692 5024 ft 137 kts 162°
2026-04-22 12:52 -38.89724 147.48074 5020 ft 138 kts 162°
2026-04-22 12:53 -38.90639 147.48458 5023 ft 138 kts 162°
2026-04-22 12:53 -38.91555 147.48844 5021 ft 139 kts 162°
2026-04-22 12:53 -38.92475 147.49231 5025 ft 139 kts 162°
2026-04-22 12:53 -38.93392 147.49617 5025 ft 138 kts 162°
2026-04-22 12:54 -38.94308 147.50003 5025 ft 138 kts 162°
2026-04-22 12:54 -38.95223 147.50389 5023 ft 138 kts 162°
2026-04-22 12:54 -38.96134 147.50773 5025 ft 138 kts 162°
2026-04-22 12:54 -38.97040 147.51156 5030 ft 135 kts 162°
2026-04-22 12:55 -38.97903 147.51530 5032 ft 126 kts 162°
2026-04-22 12:55 -38.98696 147.51878 5033 ft 114 kts 162°
2026-04-22 12:55 -38.99398 147.52189 5032 ft 99 kts 163°
2026-04-22 12:55 -38.99990 147.52451 5031 ft 80 kts 164°
2026-04-22 12:56 -39.00433 147.52644 5027 ft 55 kts 167°
2026-04-22 12:56 -39.00843 147.52785 5059 ft 58 kts 187°
2026-04-22 12:56 -39.01300 147.52943 5368 ft 83 kts 161°
2026-04-22 12:56 -39.01828 147.53144 5258 ft 41 kts 195°
2026-04-22 12:57 -39.01917 147.53054 4345 ft 44 kts 359°
2026-04-22 12:57 -39.01750 147.53716 3734 ft 122 kts 110°
2026-04-22 12:57 -39.02298 147.54795 2163 ft 142 kts 121°
2026-04-22 12:57 -39.02956 147.54844 1097 ft 150 kts 173°
2026-04-22 12:58 -39.04096 147.54893 407 ft 163 kts 167°
2026-04-22 12:58 -39.05158 147.55036 261 ft 143 kts 168°
2026-04-22 12:58 -39.06051 147.55132 293 ft 119 kts 166°
2026-04-22 12:58 -39.06918 147.55405 290 ft 139 kts 156°
2026-04-22 12:59 -39.07804 147.55745 341 ft 118 kts 156°
2026-04-22 12:59 -39.08559 147.56056 307 ft 122 kts 155°
2026-04-22 12:59 -39.09411 147.56408 333 ft 125 kts 153°
2026-04-22 12:59 -39.10223 147.56745 317 ft 124 kts 154°
2026-04-22 13:00 -39.11062 147.57092 324 ft 127 kts 154°
2026-04-22 13:00 -39.11920 147.57451 327 ft 129 kts 153°
2026-04-22 13:00 -39.12756 147.57803 326 ft 126 kts 154°
2026-04-22 13:00 -39.13608 147.58164 324 ft 132 kts 157°
2026-04-22 13:01 -39.14467 147.58524 327 ft 127 kts 155°
2026-04-22 13:01 -39.15307 147.58879 329 ft 131 kts 155°
2026-04-22 13:01 -39.16174 147.59249 334 ft 129 kts 154°
2026-04-22 13:01 -39.17027 147.59612 326 ft 131 kts 153°
2026-04-22 13:02 -39.17889 147.59980 332 ft 129 kts 153°
2026-04-22 13:02 -39.18745 147.60346 329 ft 132 kts 153°
2026-04-22 13:02 -39.19624 147.60720 331 ft 134 kts 155°
2026-04-22 13:02 -39.20491 147.61089 334 ft 131 kts 153°
2026-04-22 13:03 -39.21356 147.61460 328 ft 132 kts 155°
2026-04-22 13:03 -39.22226 147.61828 329 ft 131 kts 153°
2026-04-22 13:03 -39.23088 147.62194 328 ft 132 kts 152°
2026-04-22 13:03 -39.23970 147.62568 334 ft 131 kts 154°
2026-04-22 13:04 -39.24817 147.62930 330 ft 128 kts 151°
2026-04-22 13:04 -39.25675 147.63297 331 ft 130 kts 155°
2026-04-22 13:04 -39.26543 147.63663 331 ft 132 kts 156°
2026-04-22 13:04 -39.27413 147.64032 337 ft 130 kts 154°
2026-04-22 13:05 -39.28266 147.64398 331 ft 129 kts 155°
2026-04-22 13:05 -39.29126 147.64763 332 ft 131 kts 153°
2026-04-22 13:05 -39.30005 147.65134 334 ft 132 kts 154°
2026-04-22 13:05 -39.30860 147.65495 329 ft 131 kts 155°
2026-04-22 13:06 -39.31734 147.65863 335 ft 130 kts 156°
2026-04-22 13:06 -39.32589 147.66224 416 ft 128 kts 156°
2026-04-22 13:06 -39.33395 147.66561 577 ft 119 kts 157°
2026-04-22 13:06 -39.34192 147.66894 727 ft 122 kts 157°
2026-04-22 13:07 -39.35003 147.67234 873 ft 123 kts 153°
2026-04-22 13:07 -39.35808 147.67575 1025 ft 121 kts 155°
2026-04-22 13:07 -39.36606 147.67912 1175 ft 120 kts 155°
2026-04-22 13:07 -39.37412 147.68253 1328 ft 122 kts 156°
2026-04-22 13:08 -39.38234 147.68603 1481 ft 124 kts 156°
2026-04-22 13:08 -39.39056 147.68953 1632 ft 125 kts 153°
2026-04-22 13:08 -39.39887 147.69307 1788 ft 125 kts 154°
2026-04-22 13:08 -39.40698 147.69654 1939 ft 122 kts 154°
2026-04-22 13:09 -39.41522 147.70005 2094 ft 127 kts 154°
2026-04-22 13:09 -39.42351 147.70359 2245 ft 124 kts 156°
2026-04-22 13:09 -39.42895 147.70592 2343 ft 125 kts 158°
2026-04-22 13:09 -39.44031 147.70987 2549 ft 129 kts 172°
2026-04-22 13:10 -39.44937 147.70906 2706 ft 128 kts 184°
2026-04-22 13:10 -39.45843 147.70761 2857 ft 132 kts 185°
2026-04-22 13:10 -39.46460 147.70670 2944 ft 135 kts 186°
2026-04-22 13:10 -39.47347 147.70558 3097 ft 128 kts 185°
2026-04-22 13:11 -39.48549 147.70427 3301 ft 125 kts 185°
2026-04-22 13:11 -39.49126 147.70372 3398 ft 126 kts 185°
2026-04-22 13:11 -39.50010 147.70293 3554 ft 127 kts 184°
2026-04-22 13:11 -39.50888 147.70221 3698 ft 128 kts 186°
2026-04-22 13:12 -39.51781 147.70151 3849 ft 128 kts 184°
2026-04-22 13:12 -39.52666 147.70086 4001 ft 126 kts 185°
2026-04-22 13:12 -39.53543 147.70024 4151 ft 125 kts 185°
2026-04-22 13:12 -39.54414 147.69962 4300 ft 124 kts 184°
2026-04-22 13:13 -39.55281 147.69902 4449 ft 127 kts 185°
2026-04-22 13:13 -39.56152 147.69843 4599 ft 126 kts 184°
2026-04-22 13:13 -39.57016 147.69783 4752 ft 126 kts 185°
2026-04-22 13:13 -39.57890 147.69725 4903 ft 126 kts 184°
2026-04-22 13:14 -39.58763 147.69667 5060 ft 125 kts 185°
2026-04-22 13:14 -39.59632 147.69610 5220 ft 124 kts 184°
2026-04-22 13:14 -39.60495 147.69553 5362 ft 124 kts 184°
2026-04-22 13:14 -39.61358 147.69496 5511 ft 124 kts 185°
2026-04-22 13:15 -39.62217 147.69439 5661 ft 123 kts 184°
2026-04-22 13:15 -39.63076 147.69383 5810 ft 123 kts 185°
2026-04-22 13:15 -39.63919 147.69328 5960 ft 122 kts 185°
2026-04-22 13:15 -39.64762 147.69272 6111 ft 121 kts 185°
2026-04-22 13:16 -39.65603 147.69217 6270 ft 121 kts 184°
2026-04-22 13:16 -39.66441 147.69162 6415 ft 120 kts 185°
2026-04-22 13:16 -39.67270 147.69107 6573 ft 119 kts 184°
2026-04-22 13:16 -39.68093 147.69054 6726 ft 117 kts 185°
2026-04-22 13:17 -39.68909 147.68999 6873 ft 118 kts 184°
2026-04-22 13:17 -39.69732 147.68944 7016 ft 119 kts 184°
2026-04-22 13:17 -39.70558 147.68889 7158 ft 120 kts 184°
2026-04-22 13:17 -39.71389 147.68834 7266 ft 120 kts 183°
2026-04-22 13:18 -39.72233 147.68787 7261 ft 120 kts 183°
2026-04-22 13:18 -39.73064 147.68743 7249 ft 120 kts 184°
2026-04-22 13:18 -39.73890 147.68696 7250 ft 119 kts 184°
2026-04-22 13:18 -39.74713 147.68648 7245 ft 119 kts 184°
2026-04-22 13:19 -39.75550 147.68595 7249 ft 121 kts 184°
2026-04-22 13:19 -39.76382 147.68544 7245 ft 119 kts 184°
2026-04-22 13:19 -39.77219 147.68490 7247 ft 120 kts 184°
2026-04-22 13:19 -39.78056 147.68437 7246 ft 120 kts 184°
2026-04-22 13:20 -39.78887 147.68384 7243 ft 121 kts 184°
2026-04-22 13:20 -39.79723 147.68330 7245 ft 120 kts 184°
2026-04-22 13:20 -39.80551 147.68277 7246 ft 119 kts 184°
2026-04-22 13:20 -39.81386 147.68221 7246 ft 121 kts 184°
2026-04-22 13:21 -39.82220 147.68167 7247 ft 120 kts 184°
2026-04-22 13:21 -39.83057 147.68111 7250 ft 121 kts 184°
2026-04-22 13:21 -39.83877 147.68058 7250 ft 118 kts 185°
2026-04-22 13:21 -39.84697 147.68004 7247 ft 119 kts 185°
2026-04-22 13:22 -39.85522 147.67951 7249 ft 117 kts 185°
2026-04-22 13:22 -39.86338 147.67897 7249 ft 118 kts 185°
2026-04-22 13:22 -39.87164 147.67841 7249 ft 119 kts 185°
2026-04-22 13:22 -39.87983 147.67788 7247 ft 119 kts 185°
2026-04-22 13:23 -39.88810 147.67732 7247 ft 120 kts 184°
2026-04-22 13:23 -39.89645 147.67677 7248 ft 118 kts 184°
2026-04-22 13:23 -39.90465 147.67623 7243 ft 119 kts 185°
2026-04-22 13:23 -39.91289 147.67569 7248 ft 117 kts 185°
2026-04-22 13:24 -39.92096 147.67517 7243 ft 117 kts 185°
2026-04-22 13:24 -39.92908 147.67461 7245 ft 120 kts 184°
2026-04-22 13:24 -39.93731 147.67407 7244 ft 118 kts 184°
2026-04-22 13:24 -39.94566 147.67350 7246 ft 120 kts 185°
2026-04-22 13:25 -39.95391 147.67296 7247 ft 118 kts 185°
2026-04-22 13:25 -39.96210 147.67243 7244 ft 119 kts 185°
2026-04-22 13:25 -39.97035 147.67188 7247 ft 118 kts 185°
2026-04-22 13:25 -39.97848 147.67136 7248 ft 116 kts 185°
2026-04-22 13:26 -39.98670 147.67079 7248 ft 119 kts 185°
2026-04-22 13:26 -39.99492 147.67026 7247 ft 118 kts 184°
2026-04-22 13:26 -40.00321 147.66969 7247 ft 121 kts 184°
2026-04-22 13:26 -40.01153 147.66915 7248 ft 118 kts 185°
2026-04-22 13:27 -40.01970 147.66861 7245 ft 119 kts 185°
2026-04-22 13:27 -40.02794 147.66807 7251 ft 116 kts 185°
2026-04-22 13:27 -40.03609 147.66753 7247 ft 118 kts 185°
2026-04-22 13:27 -40.04431 147.66698 7246 ft 120 kts 185°
2026-04-22 13:28 -40.05244 147.66644 7246 ft 118 kts 185°
2026-04-22 13:28 -40.06070 147.66588 7247 ft 119 kts 184°
2026-04-22 13:28 -40.06901 147.66533 7251 ft 118 kts 184°
2026-04-22 13:28 -40.07720 147.66480 7245 ft 119 kts 185°
2026-04-22 13:29 -40.08547 147.66425 7251 ft 117 kts 185°
2026-04-22 13:29 -40.09356 147.66372 7246 ft 117 kts 185°
2026-04-22 13:29 -40.10180 147.66315 7248 ft 119 kts 184°
2026-04-22 13:29 -40.11002 147.66261 7248 ft 118 kts 184°
2026-04-22 13:30 -40.11834 147.66205 7249 ft 120 kts 184°
2026-04-22 13:30 -40.12662 147.66150 7251 ft 118 kts 184°
2026-04-22 13:30 -40.13478 147.66097 7247 ft 118 kts 184°
2026-04-22 13:30 -40.14300 147.66042 7250 ft 117 kts 185°
2026-04-22 13:31 -40.15100 147.65990 7248 ft 116 kts 185°
2026-04-22 13:31 -40.15921 147.65934 7243 ft 120 kts 185°
2026-04-22 13:31 -40.16745 147.65879 7246 ft 118 kts 185°
2026-04-22 13:31 -40.17573 147.65822 7245 ft 120 kts 184°
2026-04-22 13:32 -40.18406 147.65768 7247 ft 118 kts 185°
2026-04-22 13:32 -40.19223 147.65715 7247 ft 119 kts 186°
2026-04-22 13:32 -40.20051 147.65660 7252 ft 117 kts 186°
2026-04-22 13:32 -40.20858 147.65606 7250 ft 119 kts 186°
2026-04-22 13:33 -40.21679 147.65551 7249 ft 119 kts 185°
2026-04-22 13:33 -40.22504 147.65497 7247 ft 118 kts 185°
2026-04-22 13:33 -40.23333 147.65440 7247 ft 120 kts 185°
2026-04-22 13:33 -40.24170 147.65384 7251 ft 119 kts 185°
2026-04-22 13:34 -40.24991 147.65331 7246 ft 119 kts 185°
2026-04-22 13:34 -40.25816 147.65276 7251 ft 117 kts 186°
2026-04-22 13:34 -40.26624 147.65223 7247 ft 117 kts 185°
2026-04-22 13:34 -40.27448 147.65166 7250 ft 120 kts 185°
2026-04-22 13:35 -40.28271 147.65111 7251 ft 118 kts 185°
2026-04-22 13:35 -40.29101 147.65054 7253 ft 119 kts 185°
2026-04-22 13:35 -40.29928 147.64999 7252 ft 119 kts 185°
2026-04-22 13:35 -40.30750 147.64945 7249 ft 119 kts 185°
2026-04-22 13:36 -40.31578 147.64889 7251 ft 118 kts 186°
2026-04-22 13:36 -40.32385 147.64837 7251 ft 117 kts 186°
2026-04-22 13:36 -40.33207 147.64780 7251 ft 120 kts 186°
2026-04-22 13:36 -40.34030 147.64726 7251 ft 118 kts 185°
2026-04-22 13:37 -40.34861 147.64668 7253 ft 121 kts 185°
2026-04-22 13:37 -40.35694 147.64613 7256 ft 118 kts 186°
2026-04-22 13:37 -40.36512 147.64560 7253 ft 119 kts 185°
2026-04-22 13:37 -40.37335 147.64505 7256 ft 117 kts 186°
2026-04-22 13:38 -40.38151 147.64450 7252 ft 119 kts 188°
2026-04-22 13:38 -40.39817 147.64336 7253 ft 120 kts 188°
2026-04-22 13:38 -40.40653 147.64280 7253 ft 121 kts 186°
2026-04-22 13:39 -40.41493 147.64224 7255 ft 120 kts 189°
2026-04-22 13:39 -40.42322 147.64170 7252 ft 120 kts 188°
2026-04-22 13:39 -40.43152 147.64114 7255 ft 118 kts 188°
2026-04-22 13:39 -40.43961 147.64061 7251 ft 119 kts 188°
2026-04-22 13:40 -40.44794 147.64002 7252 ft 121 kts 188°
2026-04-22 13:40 -40.45628 147.63946 7251 ft 120 kts 187°
2026-04-22 13:40 -40.46463 147.63890 7254 ft 119 kts 186°
2026-04-22 13:40 -40.47294 147.63834 7253 ft 119 kts 188°
2026-04-22 13:41 -40.48123 147.63779 7251 ft 120 kts 188°
2026-04-22 13:41 -40.48949 147.63724 7253 ft 118 kts 188°
2026-04-22 13:41 -40.49768 147.63670 7249 ft 118 kts 186°
2026-04-22 13:41 -40.50603 147.63611 7255 ft 120 kts 187°
2026-04-22 13:42 -40.51432 147.63557 7255 ft 120 kts 185°
2026-04-22 13:42 -40.52262 147.63499 7257 ft 121 kts 186°
2026-04-22 13:42 -40.53096 147.63445 7257 ft 119 kts 187°
2026-04-22 13:42 -40.53925 147.63389 7256 ft 120 kts 187°
2026-04-22 13:43 -40.54750 147.63334 7255 ft 119 kts 187°
2026-04-22 13:43 -40.55573 147.63279 7255 ft 118 kts 186°
2026-04-22 13:43 -40.56405 147.63221 7258 ft 119 kts 187°
2026-04-22 13:43 -40.57250 147.63159 7252 ft 127 kts 187°
2026-04-22 13:44 -40.58136 147.63095 7258 ft 127 kts 187°
2026-04-22 13:44 -40.59011 147.63038 7255 ft 126 kts 186°
2026-04-22 13:44 -40.59890 147.62979 7257 ft 126 kts 188°
2026-04-22 13:44 -40.60753 147.62921 7256 ft 126 kts 187°
2026-04-22 13:45 -40.61631 147.62862 7256 ft 127 kts 187°
2026-04-22 13:45 -40.62511 147.62803 7255 ft 127 kts 187°
2026-04-22 13:45 -40.63394 147.62743 7255 ft 127 kts 187°
2026-04-22 13:45 -40.64273 147.62684 7259 ft 127 kts 188°
2026-04-22 13:46 -40.65153 147.62624 7257 ft 127 kts 187°
2026-04-22 13:46 -40.66031 147.62566 7256 ft 126 kts 188°
2026-04-22 13:46 -40.66909 147.62506 7256 ft 126 kts 187°
2026-04-22 13:46 -40.67785 147.62447 7256 ft 126 kts 188°
2026-04-22 13:47 -40.68654 147.62388 7255 ft 127 kts 187°
2026-04-22 13:47 -40.69532 147.62329 7257 ft 126 kts 188°
2026-04-22 13:47 -40.70409 147.62269 7256 ft 126 kts 187°
2026-04-22 13:47 -40.71285 147.62211 7256 ft 126 kts 187°
2026-04-22 13:48 -40.72159 147.62151 7253 ft 126 kts 187°
2026-04-22 13:48 -40.73038 147.62091 7254 ft 126 kts 187°
2026-04-22 13:48 -40.73916 147.62032 7252 ft 127 kts 187°
2026-04-22 13:48 -40.74798 147.61972 7254 ft 127 kts 187°
2026-04-22 13:49 -40.75678 147.61913 7255 ft 127 kts 189°
2026-04-22 13:49 -40.76555 147.61852 7257 ft 128 kts 189°
2026-04-22 13:49 -40.77444 147.61792 7257 ft 128 kts 188°
2026-04-22 13:49 -40.78332 147.61731 7256 ft 128 kts 189°
2026-04-22 13:50 -40.78933 147.61691 7257 ft 128 kts 188°
2026-04-22 13:50 -40.80110 147.61611 7258 ft 128 kts 189°
2026-04-22 13:50 -40.80999 147.61551 7260 ft 128 kts 188°
2026-04-22 13:50 -40.81888 147.61492 7258 ft 128 kts 189°
2026-04-22 13:51 -40.82773 147.61432 7260 ft 126 kts 187°
2026-04-22 13:51 -40.83648 147.61374 7258 ft 126 kts 188°
2026-04-22 13:51 -40.84525 147.61314 7259 ft 126 kts 188°
2026-04-22 13:51 -40.85401 147.61255 7260 ft 126 kts 187°
2026-04-22 13:52 -40.86278 147.61196 7255 ft 126 kts 187°
2026-04-22 13:52 -40.87156 147.61135 7256 ft 126 kts 188°
2026-04-22 13:52 -40.88031 147.61076 7256 ft 126 kts 188°
2026-04-22 13:52 -40.88906 147.61016 7259 ft 126 kts 187°
2026-04-22 13:53 -40.89782 147.60955 7256 ft 126 kts 188°
2026-04-22 13:53 -40.90659 147.60896 7257 ft 126 kts 187°
2026-04-22 13:53 -40.91535 147.60836 7256 ft 126 kts 188°
2026-04-22 13:53 -40.92412 147.60777 7256 ft 126 kts 188°
2026-04-22 13:54 -40.93274 147.60718 7258 ft 126 kts 188°
2026-04-22 13:54 -40.94150 147.60658 7259 ft 126 kts 187°
2026-04-22 13:54 -40.95026 147.60598 7259 ft 126 kts 189°
2026-04-22 13:54 -40.95907 147.60537 7259 ft 127 kts 189°
2026-04-22 13:55 -40.96788 147.60477 7260 ft 127 kts 189°
2026-04-22 13:55 -40.97668 147.60418 7259 ft 127 kts 189°
2026-04-22 13:55 -40.98548 147.60359 7260 ft 126 kts 189°
2026-04-22 13:55 -40.99425 147.60300 7259 ft 126 kts 189°
2026-04-22 13:56 -41.00306 147.60240 7256 ft 126 kts 189°
2026-04-22 13:56 -41.01182 147.60181 7255 ft 126 kts 189°
2026-04-22 13:56 -41.02059 147.60121 7261 ft 126 kts 189°
2026-04-22 13:56 -41.02938 147.60059 7262 ft 127 kts 189°
2026-04-22 13:57 -41.03818 147.59999 7259 ft 127 kts 189°
2026-04-22 13:57 -41.04686 147.59940 7258 ft 127 kts 189°
2026-04-22 13:57 -41.05578 147.59878 7259 ft 127 kts 189°
2026-04-22 13:57 -41.06460 147.59816 7259 ft 127 kts 189°
2026-04-22 13:58 -41.07340 147.59757 7258 ft 127 kts 189°
2026-04-22 13:58 -41.08222 147.59696 7260 ft 127 kts 189°
2026-04-22 13:58 -41.09089 147.59637 7259 ft 127 kts 189°
2026-04-22 13:58 -41.09971 147.59577 7259 ft 127 kts 189°
2026-04-22 13:59 -41.10850 147.59517 7257 ft 126 kts 189°
2026-04-22 13:59 -41.11729 147.59458 7257 ft 126 kts 189°
2026-04-22 13:59 -41.12602 147.59399 7255 ft 125 kts 189°
2026-04-22 13:59 -41.13481 147.59336 7256 ft 127 kts 190°
2026-04-22 14:00 -41.14368 147.59274 7257 ft 128 kts 190°
2026-04-22 14:00 -41.14954 147.59233 7263 ft 126 kts 189°
2026-04-22 14:00 -41.15820 147.59177 7258 ft 124 kts 189°
2026-04-22 14:00 -41.16680 147.59118 7257 ft 124 kts 189°
2026-04-22 14:01 -41.17544 147.59058 7254 ft 124 kts 189°
2026-04-22 14:01 -41.18407 147.58998 7251 ft 124 kts 189°
2026-04-22 14:01 -41.19271 147.58939 7251 ft 124 kts 189°
2026-04-22 14:01 -41.20134 147.58880 7251 ft 124 kts 189°
2026-04-22 14:02 -41.20997 147.58821 7250 ft 124 kts 189°
2026-04-22 14:02 -41.21849 147.58763 7254 ft 124 kts 189°
2026-04-22 14:02 -41.22721 147.58704 7251 ft 124 kts 189°
2026-04-22 14:02 -41.23573 147.58643 7255 ft 124 kts 188°
2026-04-22 14:03 -41.24431 147.58587 7254 ft 123 kts 189°
2026-04-22 14:03 -41.25290 147.58529 7247 ft 124 kts 189°
2026-04-22 14:03 -41.26149 147.58471 7249 ft 123 kts 189°
2026-04-22 14:03 -41.27000 147.58411 7245 ft 123 kts 190°
2026-04-22 14:04 -41.27863 147.58349 7246 ft 124 kts 189°
2026-04-22 14:04 -41.28727 147.58288 7247 ft 124 kts 189°
2026-04-22 14:04 -41.29590 147.58229 7248 ft 125 kts 190°
2026-04-22 14:04 -41.30456 147.58169 7250 ft 124 kts 189°
2026-04-22 14:05 -41.31313 147.58114 7249 ft 123 kts 190°
2026-04-22 14:05 -41.32163 147.58056 7246 ft 124 kts 189°
2026-04-22 14:05 -41.33898 147.57937 7243 ft 126 kts 191°
2026-04-22 14:06 -41.34772 147.57879 7243 ft 125 kts 192°
2026-04-22 14:06 -41.35645 147.57816 7239 ft 126 kts 192°
2026-04-22 14:06 -41.36519 147.57755 7244 ft 124 kts 193°
2026-04-22 14:06 -41.37392 147.57688 7239 ft 126 kts 194°
2026-04-22 14:07 -41.38264 147.57624 7244 ft 126 kts 193°
2026-04-22 14:07 -41.39132 147.57566 7244 ft 124 kts 192°
2026-04-22 14:07 -41.40007 147.57505 7244 ft 127 kts 190°
2026-04-22 14:07 -41.40877 147.57451 7245 ft 123 kts 192°
2026-04-22 14:08 -41.41725 147.57395 7227 ft 125 kts 194°
2026-04-22 14:08 -41.42593 147.57331 7243 ft 124 kts 191°
2026-04-22 14:08 -41.43452 147.57276 7235 ft 124 kts 192°
2026-04-22 14:08 -41.44320 147.57216 7241 ft 124 kts 191°
2026-04-22 14:09 -41.45185 147.57157 7236 ft 126 kts 191°
2026-04-22 14:09 -41.46060 147.57097 7238 ft 125 kts 193°
2026-04-22 14:09 -41.46921 147.57038 7233 ft 125 kts 192°
2026-04-22 14:09 -41.47789 147.56976 7242 ft 123 kts 186°
2026-04-22 14:10 -41.48638 147.56918 7235 ft 123 kts 188°
2026-04-22 14:10 -41.49496 147.56855 7238 ft 123 kts 189°
2026-04-22 14:10 -41.50353 147.56795 7235 ft 124 kts 188°
2026-04-22 14:10 -41.51216 147.56734 7237 ft 123 kts 188°
2026-04-22 14:11 -41.52072 147.56676 7239 ft 123 kts 189°
2026-04-22 14:11 -41.52933 147.56616 7236 ft 124 kts 189°
2026-04-22 14:11 -41.53791 147.56558 7236 ft 123 kts 191°
2026-04-22 14:11 -41.54651 147.56497 7230 ft 126 kts 191°
2026-04-22 14:12 -41.55515 147.56440 7233 ft 123 kts 190°
2026-04-22 14:12 -41.56379 147.56381 7228 ft 125 kts 189°
2026-04-22 14:12 -41.57244 147.56322 7231 ft 123 kts 191°
2026-04-22 14:12 -41.58101 147.56262 7227 ft 125 kts 191°
2026-04-22 14:13 -41.58956 147.56205 7230 ft 122 kts 191°
2026-04-22 14:13 -41.59800 147.56144 7228 ft 124 kts 189°
2026-04-22 14:13 -41.60663 147.56081 7228 ft 124 kts 191°
2026-04-22 14:13 -41.61527 147.56020 7231 ft 124 kts 189°
2026-04-22 14:14 -41.62391 147.55959 7228 ft 125 kts 191°
2026-04-22 14:14 -41.63255 147.55900 7233 ft 124 kts 189°
2026-04-22 14:14 -41.64113 147.55843 7230 ft 123 kts 191°
2026-04-22 14:14 -41.64964 147.55783 7226 ft 123 kts 190°
2026-04-22 14:15 -41.65833 147.55715 7232 ft 126 kts 191°
2026-04-22 14:15 -41.66701 147.55655 7227 ft 125 kts 188°
2026-04-22 14:15 -41.67569 147.55594 7221 ft 125 kts 189°
2026-04-22 14:15 -41.68438 147.55536 7223 ft 124 kts 189°
2026-04-22 14:16 -41.69303 147.55477 7220 ft 124 kts 189°
2026-04-22 14:16 -41.70161 147.55418 7216 ft 124 kts 192°
2026-04-22 14:16 -41.71032 147.55353 7221 ft 126 kts 191°
2026-04-22 14:16 -41.71899 147.55293 7216 ft 127 kts 190°
2026-04-22 14:17 -41.72792 147.55226 7221 ft 129 kts 189°
2026-04-22 14:17 -41.73667 147.55170 7220 ft 127 kts 190°
2026-04-22 14:17 -41.74551 147.55110 7218 ft 127 kts 192°
2026-04-22 14:17 -41.75430 147.55050 7215 ft 127 kts 191°
2026-04-22 14:18 -41.76313 147.54988 7214 ft 127 kts 189°
2026-04-22 14:18 -41.77200 147.54926 7215 ft 128 kts 189°
2026-04-22 14:18 -41.78092 147.54864 7215 ft 128 kts 188°
2026-04-22 14:18 -41.78983 147.54803 7214 ft 128 kts 192°
2026-04-22 14:19 -41.79873 147.54741 7210 ft 128 kts 190°
2026-04-22 14:19 -41.80758 147.54680 7211 ft 127 kts 192°
2026-04-22 14:19 -41.81638 147.54618 7213 ft 125 kts 190°
2026-04-22 14:19 -41.82492 147.54560 7203 ft 120 kts 189°
2026-04-22 14:20 -41.84198 147.54433 7214 ft 122 kts 191°
2026-04-22 14:20 -41.85036 147.54378 7208 ft 122 kts 188°
2026-04-22 14:20 -41.85863 147.54321 7211 ft 120 kts 191°
2026-04-22 14:21 -41.87526 147.54201 7205 ft 123 kts 192°
2026-04-22 14:21 -41.88369 147.54142 7203 ft 122 kts 188°
2026-04-22 14:22 -41.90081 147.54023 7205 ft 120 kts 191°
2026-04-22 14:22 -41.90923 147.53964 7206 ft 121 kts 192°
2026-04-22 14:22 -41.92595 147.53848 7202 ft 121 kts 190°
2026-04-22 14:23 -41.93440 147.53787 7205 ft 121 kts 189°
2026-04-22 14:23 -41.94285 147.53725 7202 ft 123 kts 188°
2026-04-22 14:23 -41.95146 147.53662 7208 ft 122 kts 188°
2026-04-22 14:23 -41.95985 147.53607 7199 ft 122 kts 192°
2026-04-22 14:24 -41.96821 147.53548 7207 ft 119 kts 192°
2026-04-22 14:24 -41.97650 147.53491 7198 ft 121 kts 190°
2026-04-22 14:24 -41.98497 147.53427 7201 ft 123 kts 191°
2026-04-22 14:24 -41.99343 147.53368 7198 ft 123 kts 189°
2026-04-22 14:25 -42.00202 147.53306 7206 ft 122 kts 188°
2026-04-22 14:25 -42.01048 147.53249 7202 ft 120 kts 188°
2026-04-22 14:25 -42.01893 147.53189 7200 ft 122 kts 188°
2026-04-22 14:25 -42.02731 147.53132 7201 ft 118 kts 192°
2026-04-22 14:26 -42.03557 147.53073 7197 ft 122 kts 188°
2026-04-22 14:26 -42.04403 147.53013 7202 ft 121 kts 192°
2026-04-22 14:26 -42.05249 147.52952 7198 ft 124 kts 188°
2026-04-22 14:26 -42.06107 147.52892 7201 ft 122 kts 191°
2026-04-22 14:27 -42.06946 147.52835 7198 ft 121 kts 188°
2026-04-22 14:27 -42.07786 147.52776 7196 ft 119 kts 191°
2026-04-22 14:27 -42.08621 147.52716 7196 ft 120 kts 192°
2026-04-22 14:27 -42.09466 147.52655 7196 ft 122 kts 189°
2026-04-22 14:28 -42.10309 147.52596 7193 ft 123 kts 189°
2026-04-22 14:28 -42.11167 147.52529 7186 ft 127 kts 189°
2026-04-22 14:28 -42.12040 147.52470 7190 ft 123 kts 193°
2026-04-22 14:28 -42.12908 147.52409 7189 ft 125 kts 193°
2026-04-22 14:29 -42.13762 147.52353 7187 ft 122 kts 193°
2026-04-22 14:29 -42.14624 147.52289 7188 ft 125 kts 190°
2026-04-22 14:29 -42.15499 147.52227 7188 ft 126 kts 189°
2026-04-22 14:29 -42.16358 147.52168 7188 ft 125 kts 191°
2026-04-22 14:30 -42.17231 147.52107 7190 ft 124 kts 194°
2026-04-22 14:30 -42.18095 147.52047 7191 ft 124 kts 190°
2026-04-22 14:30 -42.18952 147.51990 7188 ft 122 kts 194°
2026-04-22 14:30 -42.19803 147.51929 7179 ft 124 kts 189°
2026-04-22 14:31 -42.20668 147.51866 7181 ft 124 kts 193°
2026-04-22 14:31 -42.21535 147.51802 7177 ft 126 kts 189°
2026-04-22 14:31 -42.22407 147.51740 7178 ft 124 kts 193°
2026-04-22 14:31 -42.23255 147.51681 7174 ft 125 kts 190°
2026-04-22 14:32 -42.24117 147.51621 7181 ft 122 kts 193°
2026-04-22 14:32 -42.24976 147.51561 7179 ft 123 kts 190°
2026-04-22 14:32 -42.25840 147.51497 7177 ft 124 kts 194°
2026-04-22 14:32 -42.26708 147.51433 7176 ft 126 kts 190°
2026-04-22 14:33 -42.27586 147.51369 7173 ft 126 kts 193°
2026-04-22 14:33 -42.28455 147.51309 7170 ft 125 kts 190°
2026-04-22 14:33 -42.29326 147.51247 7172 ft 124 kts 194°
2026-04-22 14:33 -42.30168 147.51190 7168 ft 123 kts 193°
2026-04-22 14:34 -42.31032 147.51126 7181 ft 125 kts 193°
2026-04-22 14:34 -42.31914 147.51064 7174 ft 129 kts 192°
2026-04-22 14:34 -42.32812 147.51000 7174 ft 129 kts 191°
2026-04-22 14:34 -42.33705 147.50939 7172 ft 128 kts 193°
2026-04-22 14:35 -42.34596 147.50878 7171 ft 127 kts 195°
2026-04-22 14:35 -42.35481 147.50817 7162 ft 127 kts 192°
2026-04-22 14:35 -42.36360 147.50753 7159 ft 128 kts 195°
2026-04-22 14:35 -42.37251 147.50689 7160 ft 128 kts 191°
2026-04-22 14:36 -42.38146 147.50624 7162 ft 129 kts 192°
2026-04-22 14:36 -42.39044 147.50560 7161 ft 128 kts 192°
2026-04-22 14:36 -42.39929 147.50497 7162 ft 128 kts 193°
2026-04-22 14:36 -42.40813 147.50436 7161 ft 127 kts 195°
2026-04-22 14:37 -42.41703 147.50369 7160 ft 129 kts 195°
2026-04-22 14:37 -42.42593 147.50305 7158 ft 128 kts 192°
2026-04-22 14:37 -42.43484 147.50240 7151 ft 128 kts 195°
2026-04-22 14:37 -42.44371 147.50178 7153 ft 128 kts 192°
2026-04-22 14:38 -42.45249 147.50117 7152 ft 128 kts 195°
2026-04-22 14:38 -42.46138 147.50052 7152 ft 128 kts 195°
2026-04-22 14:38 -42.47031 147.49988 7154 ft 128 kts 194°
2026-04-22 14:38 -42.47924 147.49926 7150 ft 128 kts 193°
2026-04-22 14:39 -42.48818 147.49857 7150 ft 128 kts 194°
2026-04-22 14:39 -42.49688 147.49795 7148 ft 127 kts 190°
2026-04-22 14:39 -42.50566 147.49735 7152 ft 124 kts 195°
2026-04-22 14:40 -42.52015 147.49631 7146 ft 129 kts 193°
2026-04-22 14:40 -42.53202 147.49563 6911 ft 126 kts 189°
2026-04-22 14:40 -42.54080 147.49517 6684 ft 126 kts 191°
2026-04-22 14:40 -42.54953 147.49467 6456 ft 125 kts 193°
2026-04-22 14:41 -42.55823 147.49411 6230 ft 126 kts 193°
2026-04-22 14:41 -42.56696 147.49354 6001 ft 125 kts 195°
2026-04-22 14:41 -42.57566 147.49297 5779 ft 125 kts 194°
2026-04-22 14:41 -42.58431 147.49241 5555 ft 124 kts 194°
2026-04-22 14:42 -42.59291 147.49185 5333 ft 124 kts 195°
2026-04-22 14:42 -42.60142 147.49125 5113 ft 125 kts 195°
2026-04-22 14:42 -42.61012 147.49065 4889 ft 124 kts 195°
2026-04-22 14:42 -42.61875 147.49006 4657 ft 124 kts 195°
2026-04-22 14:43 -42.62746 147.48943 4433 ft 125 kts 194°
2026-04-22 14:43 -42.63615 147.48879 4209 ft 126 kts 195°
2026-04-22 14:43 -42.64503 147.48808 4052 ft 129 kts 195°
2026-04-22 14:43 -42.65411 147.48728 3982 ft 132 kts 194°
2026-04-22 14:44 -42.66316 147.48653 3965 ft 128 kts 195°
2026-04-22 14:44 -42.67208 147.48582 3948 ft 129 kts 196°
2026-04-22 14:44 -42.68115 147.48507 3938 ft 131 kts 195°
2026-04-22 14:44 -42.69022 147.48438 3936 ft 130 kts 193°
2026-04-22 14:45 -42.69911 147.48372 3933 ft 130 kts 194°
2026-04-22 14:45 -42.70814 147.48301 3929 ft 129 kts 195°
2026-04-22 14:45 -42.71711 147.48243 3715 ft 130 kts 194°
2026-04-22 14:45 -42.72629 147.48187 3470 ft 133 kts 195°
2026-04-22 14:46 -42.73540 147.48136 3215 ft 130 kts 192°
2026-04-22 14:46 -42.74445 147.48073 2953 ft 130 kts 191°
2026-04-22 14:46 -42.75345 147.48007 2719 ft 130 kts 189°
2026-04-22 14:46 -42.76250 147.47947 2469 ft 130 kts 186°
2026-04-22 14:47 -42.77156 147.47889 2219 ft 131 kts 188°
2026-04-22 14:47 -42.78046 147.47831 1970 ft 127 kts 186°
2026-04-22 14:47 -42.78928 147.47771 1711 ft 129 kts 189°
2026-04-22 14:47 -42.79809 147.47709 1483 ft 125 kts 188°
2026-04-22 14:48 -42.80657 147.47536 1189 ft 119 kts 200°
2026-04-22 14:48 -42.81417 147.47193 992 ft 110 kts 206°
2026-04-22 14:48 -42.82102 147.46858 801 ft 100 kts 208°
2026-04-22 14:48 -42.82772 147.46891 609 ft 98 kts 151°
2026-04-22 14:49 -42.83247 147.47455 452 ft 82 kts 97°
2026-04-22 14:49 -42.83284 147.48069 330 ft 47 kts 32°
2026-04-22 14:49 -42.83040 147.48146 290 ft 40 kts 340°
2026-04-22 14:49 -42.82828 147.47930 240 ft 36 kts 290°
2026-04-22 14:50 -42.82768 147.47688 122 ft 27 kts 239°
2026-04-22 14:50 -42.82865 147.47587 50 ft 8 kts 201°
2026-04-22 14:50 -42.82892 147.47571 53 ft 8 kts 201°
2026-04-22 14:50 -42.82911 147.47548 49 ft 1 kts 236°
2026-04-22 14:51 -42.82912 147.47540 42 ft 1 kts 237°
2026-04-22 14:51 -42.82913 147.47537 35 ft 0 kts 217°